Satellite: HUBBLE
Catalog number: 20580
Epoch time:      09070.94198851
Element set:    0348
Inclination:      028.4710 deg
RA of node:       016.7521 deg
Eccentricity:    0.0003453
Arg of perigee:   350.1026 deg
Mean anomaly:     009.9493 deg
Mean motion:   15.00461980 rev/day
Decay rate:       2.91e-06 rev/day^2
Epoch rev:           83523
Checksum:              277

Satellite: PO-34
Catalog number: 25520
Epoch time:      09071.43672936
Element set:     202
Inclination:      028.4594 deg
RA of node:       182.7248 deg
Eccentricity:    0.0004914
Arg of perigee:   325.4465 deg
Mean anomaly:     034.5796 deg
Mean motion:   15.17307125 rev/day
Decay rate:       3.92e-06 rev/day^2
Epoch rev:           57394
Checksum:              311

Satellite: ISS
Catalog number: 25544
Epoch time:      09070.80611111
Element set:    0438
Inclination:      051.6397 deg
RA of node:       085.8155 deg
Eccentricity:    0.0009687
Arg of perigee:   113.1247 deg
Mean anomaly:     226.4121 deg
Mean motion:   15.71391070 rev/day
Decay rate:      7.951e-05 rev/day^2
Epoch rev:           59062
Checksum:              286

Satellite: CO-58
Catalog number: 28895
Epoch time:      09070.72986808
Element set:    0253
Inclination:      098.0724 deg
RA of node:       324.0126 deg
Eccentricity:    0.0016849
Arg of perigee:   294.7779 deg
Mean anomaly:     065.1602 deg
Mean motion:   14.59747686 rev/day
Decay rate:        1.2e-07 rev/day^2
Epoch rev:           17951
Checksum:              354

Satellite: FALCON
Catalog number: 30776
Epoch time:      09070.92971490
Element set:    0528
Inclination:      035.4343 deg
RA of node:       329.4642 deg
Eccentricity:    0.0000624
Arg of perigee:   211.5410 deg
Mean anomaly:     148.5269 deg
Mean motion:   15.03185557 rev/day
Decay rate:       2.84e-06 rev/day^2
Epoch rev:           11045
Checksum:              282

Satellite: MAST
Catalog number: 31126
Epoch time:      09069.17926044
Element set:    0546
Inclination:      098.0012 deg
RA of node:       128.4626 deg
Eccentricity:    0.0094132
Arg of perigee:   226.6312 deg
Mean anomaly:     132.7027 deg
Mean motion:   14.53481094 rev/day
Decay rate:       -4.9e-07 rev/day^2
Epoch rev:           10065
Checksum:              272

Satellite: CAPE1
Catalog number: 31130
Epoch time:      09070.63600377
Element set:    0550
Inclination:      098.0041 deg
RA of node:       128.2564 deg
Eccentricity:    0.0101868
Arg of perigee:   226.9833 deg
Mean anomaly:     132.2785 deg
Mean motion:   14.52038479 rev/day
Decay rate:      -1.20e-06 rev/day^2
Epoch rev:           10053
Checksum:              267

Satellite: COMPASS
Catalog number: 32787
Epoch time:      09070.64693716
Element set:    0305
Inclination:      097.9542 deg
RA of node:       135.2510 deg
Eccentricity:    0.0015700
Arg of perigee:   353.8462 deg
Mean anomaly:     006.2530 deg
Mean motion:   14.81559421 rev/day
Decay rate:       1.25e-06 rev/day^2
Epoch rev:           04700
Checksum:              274

Satellite: AAUSAT2
Catalog number: 32788
Epoch time:      09070.89295544
Element set:    0306
Inclination:      097.9547 deg
RA of node:       135.5395 deg
Eccentricity:    0.0015319
Arg of perigee:   355.1736 deg
Mean anomaly:     004.9296 deg
Mean motion:   14.81679666 rev/day
Decay rate:       1.42e-06 rev/day^2
Epoch rev:           04704
Checksum:              337

Satellite: DO-64
Catalog number: 32789
Epoch time:      09070.71004542
Element set:    0314
Inclination:      097.9585 deg
RA of node:       135.4631 deg
Eccentricity:    0.0015602
Arg of perigee:   352.8013 deg
Mean anomaly:     007.2958 deg
Mean motion:   14.81633451 rev/day
Decay rate:       2.59e-06 rev/day^2
Epoch rev:           04701
Checksum:              293

Satellite: CO-66
Catalog number: 32791
Epoch time:      09070.61127511
Element set:    0298
Inclination:      097.9565 deg
RA of node:       135.2469 deg
Eccentricity:    0.0016190
Arg of perigee:   351.7850 deg
Mean anomaly:     008.3091 deg
Mean motion:   14.81397346 rev/day
Decay rate:       2.33e-06 rev/day^2
Epoch rev:           04696
Checksum:              320

Satellite: RS-30
Catalog number: 32953
Epoch time:      09070.23383614
Element set:     252
Inclination:      082.5049 deg
RA of node:       317.5369 deg
Eccentricity:    0.0020057
Arg of perigee:   033.8318 deg
Mean anomaly:     326.4039 deg
Mean motion:   12.42999910 rev/day
Decay rate:        1.0e-07 rev/day^2
Epoch rev:            3622
Checksum:              280

/EX



_______________________________________________
Via the Keps mailing list courtesy of AMSAT-NA
http://amsat.org/mailman/listinfo/keps

--- ViaMAIL!/WC v1.60d
 * Origin: Chowdanet (401-724-4410) telnet://chowdanet.com  (1:323/120)